Regional Weather Roundup
Issued by NWS

Home | Current Version | Previous Version | Graphics & Text | Print | Product List | Glossary On
Versions: 1 2 3 4 5 6 7 8 9 10 11 12 13 14 15 16 17 18 19 20 21 22 23 24 25 26 27 28 29 30 31 32 33 34 35 36 37 38 39 40 41 42 43 44 45 46 47 48 49 50
000
ASUS43 KLSX 121759
RWRMO

WEATHER SUMMARY FOR MISSOURI
NATIONAL WEATHER SERVICE SPRINGFIELD MO
100 PM CDT SAT JUL 12 2014

NOTE: "FAIR" INDICATES FEW OR NO CLOUDS BELOW 12,000 FEET WITH NO
       SIGNIFICANT WEATHER AND/OR OBSTRUCTIONS TO VISIBILITY.
       CURRENT SKY AND/OR WEATHER CONDITIONS ARE NOT AVAILABLE FOR
       CHILLICOTHE AND FARMINGTON.

MOZ001>031-035>038-043-044-053-054-121900-
...NORTHERN AND WESTERN MISSOURI...

CITY           SKY/WX    TMP DP  RH WIND       PRES   REMARKS
KANSAS CTY INT PTSUNNY   88  71  57 SW15      30.03F HX  94
6HR MIN TEMP:  76; 6HR MAX TEMP:  88;

KANSAS C DTWN  PTSUNNY   92  68  45 SW14      30.02F HX  96
6HR MIN TEMP:  79; 6HR MAX TEMP:  92;

LEE`S SUMMIT   PTSUNNY   87  69  54 SW12      30.06F HX  91
6HR MIN TEMP:  75; 6HR MAX TEMP:  87;

ST JOSEPH      MOSUNNY   89  74  60 SW8       30.00F HX  98
6HR MIN TEMP:  76; 6HR MAX TEMP:  89;

CHILLICOTHE      N/A     86  73  65 S6        30.03F HX  93
6HR MIN TEMP:  76; 6HR MAX TEMP:  86;

KIRKSVILLE     PTSUNNY   84  72  67 SW9       30.05F
6HR MIN TEMP:  76; 6HR MAX TEMP:  85;


$$
MOZ066>068-077>081-088>096-101>105-121900-
...SOUTHWEST MISSOURI...

CITY           SKY/WX    TMP DP  RH WIND       PRES   REMARKS
SPRINGFIELD    MOSUNNY   89  68  49 SW15      30.13F HX  93
6HR MIN TEMP:  72; 6HR MAX TEMP:  89;

JOPLIN         MOSUNNY   91  63  39 W14G25    30.11F HX  92
6HR MIN TEMP:  75; 6HR MAX TEMP:  93;


$$
MOZ032>034-039>042-045>050-055>058-069>072-121900-
...CENTRAL MISSOURI...

CITY           SKY/WX    TMP DP  RH WIND       PRES   REMARKS
COLUMBIA       PTSUNNY   88  72  58 S7        30.09S HX  94
6HR MIN TEMP:  76; 6HR MAX TEMP:  88;

JEFFERSON CITY PTSUNNY   89  70  53 SW8       30.08R HX  94
6HR MIN TEMP:  77; 6HR MAX TEMP:  89;

ROLLA          SUNNY     91  66  43 W13       30.10F HX  93
6HR MIN TEMP:  75; 6HR MAX TEMP:  91;

SEDALIA        PTSUNNY   88  72  58 SW14      30.08F HX  94
6HR MIN TEMP:  77; 6HR MAX TEMP:  88;

OSAGE BEACH    MOSUNNY   90  70  51 SW13      30.10S HX  95

$$
MOZ051-052-059>065-121900-
...EAST CENTRAL MISSOURI...

CITY           SKY/WX    TMP DP  RH WIND       PRES   REMARKS
ST LOUIS INTL  PTSUNNY   94  71  47 W6        30.09F HX 101
6HR MIN TEMP:  80; 6HR MAX TEMP:  94;

SPIRIT OF STL  PTSUNNY   93  68  43 W10       30.07S HX  97
6HR MIN TEMP:  78; 6HR MAX TEMP:  93;

ST CHARLES     MOSUNNY   89  72  56 VRB3      30.07F HX  96
6HR MIN TEMP:  77; 6HR MAX TEMP:  89;


$$
MOZ072>076-082>087-097>100-106>115-121900-
...SOUTH CENTRAL AND SOUTHEAST MISSOURI...

CITY           SKY/WX    TMP DP  RH WIND       PRES   REMARKS
CAPE GIRARDEAU MOSUNNY   90  75  61 S8        30.12S HX 100
6HR MIN TEMP:  73; 6HR MAX TEMP:  90;

FARMINGTON     MOSUNNY   90  70  51 NW8       30.14F HX  95
6HR MIN TEMP:  73; 6HR MAX TEMP:  90;

POPLAR BLUFF   SUNNY     89  74  60 SW7       30.11F HX  98
6HR MIN TEMP:  73; 6HR MAX TEMP:  89;

WEST PLAINS    SUNNY     87  70  56 SW6       30.17F HX  92
6HR MIN TEMP:  74; 6HR MAX TEMP:  88;


$$



USA.gov is the U.S. government's official web portal to all federal, state and local government web resources and services.